Location: Corralito
(10.2667°N, 66.9500°W)
Time: 04:41:49
(UTC+00:00)

CZ-4B DEB - Pass Details

Date: 10 December 2023
Orbit: 837 x 858 km, 99.0° (Epoch: 22 February)

Event Time Altitude Azimuth Distance (km) Brightness Sun altitude
Rises 00:34:30 0° 190° (S) 3,410 7.7 -34.8°
Reaches altitude 10° 00:37:11 10° 201° (SSW) 2,478 7.0 -35.4°
Maximum altitude 00:41:48 28° 259° (WSW) 1,550 6.0 -36.5°
Drops below altitude 10° 00:46:28 10° 317° (NW) 2,485 6.8 -37.5°
Enters shadow 00:46:50 - 319° (NW) 2,605 6.9 -37.6°
